Location: DARK SKY Beskydy - Park tmavé oblohy, www.darkskybeskydy.cz
(49.4926°N, 18.5016°E)
Time: 11:43:00
(UTC+02:00)

BlueWalker 3 - Pass Details

Date: 19 June 2024
Orbit: 480 x 491 km, 53.2° (Epoch: 23 July)

Event Time Altitude Azimuth Distance (km) Brightness Sun altitude
Rises 23:21:45 0° 255° (WSW) 2,534 5.6 -14.6°
Reaches altitude 10° 23:23:56 10° 258° (WSW) 1,655 4.7 -14.7°
Maximum altitude 23:27:39 67° 341° (NNW) 523 2.2 -14.9°
Drops below altitude 10° 23:31:22 10° 65° (ENE) 1,657 4.6 -15.1°
Sets 23:33:33 0° 69° (ENE) 2,538 5.6 -15.2°
